Regional Weather Roundup
Issued by NWS Wakefield, VA

Home | Current Version | Previous Version | Text Only | Print | Product List | Glossary Off
Versions: 1 2 3 4 5 6 7 8 9 10 11 12 13 14 15 16 17 18 19 20 21 22 23 24 25 26 27 28 29 30 31 32 33 34 35 36 37 38 39 40 41 42 43 44 45 46 47 48 49 50

932
ASUS41 KAKQ 200214
RWRAKQ

REGIONAL WEATHER ROUNDUP
NATIONAL WEATHER SERVICE WAKEFIELD VA
1000 PM EDT THU APR 19 2018

Note: "fair" indicates few or no clouds below 12,000 feet with no
significant weather and/or obstructions to visibility. * = Denotes
station may not report precipitation (e.g., rain,snow,etc.),
thunder or fog.

VAZ042-051-052>054-056-200300-
NORTHERN VIRGINIA

CITY           SKY/WX    TMP DP  RH WIND       PRES   REMARKS
WASH NATIONAL  FAIR      46  25  43 NW15      30.16R
DULLES         MOCLDY    42  27  55 NW7       30.15R
FORT BELVOIR   FAIR      45  27  49 NW8       30.16R
QUANTICO       FAIR      46  27  47 N14G25    30.18R
FREDERICKSBRG* FAIR      45  28  52 NW7       30.17R
STAFFORD*      FAIR      44  26  50 NW7G17    30.21R
WARRENTON      FAIR      43  23  45 NW5       30.16R
CULPEPER*      FAIR      45  23  41 NW6       30.18R
MANASSAS*      FAIR      43  26  51 NW13      30.17R
LEESBURG*      FAIR      43  28  56 N6        30.16R
WINCHESTER     MOCLDY    39  27  60 NW12      30.16S
FRONT ROYAL*   MOCLDY    43  27  52 W7        30.15R
LURAY*         MOCLDY    43  27  52 NW10G22   30.16R
$$

VAZ048-049-060>072-079>083-200300-
CENTRAL AND SOUTH CENTRAL VIRGINIA

CITY           SKY/WX    TMP DP  RH WIND       PRES   REMARKS
RICHMOND       FAIR      47  26  44 N18G25    30.16R
CHESTERFIELD*  FAIR      48  26  42 N14G21    30.16R
PETERSBURG*    FAIR      50  25  38 N14G21    30.15R
HANOVER        FAIR      46  25  43 NW7G17    30.18R
TAPPAHANNOCK*  FAIR      46  27  47 NW7       30.18R
QUINTON*       FAIR      47  27  46 N15G24    30.15R
CHARLOTTSVILLE FAIR      44  24  45 NW3       30.17R
GORDONSVILLE*  FAIR      44  27  51 CALM      30.17R
ORANGE*        FAIR      43  25  49 CALM      30.17R
LOUISA*        FAIR      42  25  50 NW5       30.22R
BUMPASS*       FAIR      45  23  42 N3        30.17R
FARMVILLE*     FAIR      48  24  38 N6        30.17R
CREWE*         FAIR      47  29  49 NW8       30.16R
FORT PICKETT*  FAIR      47  30  52 NW6       30.15R
CHASE CITY*    FAIR      46  30  52 W7        30.17R
CLARKSVILLE*   FAIR      46  30  53 NW5       30.17R
SOUTH HILL*    FAIR      47  31  53 NW7       30.20R
LAWRENCEVILLE* FAIR      47  29  50 NW3       30.15R
EMPORIA*       FAIR      50  30  46 W9        30.15R
$$

VAZ088>098-200300-
SOUTHEAST VIRGINIA

CITY           SKY/WX    TMP DP  RH WIND       PRES   REMARKS
NORFOLK        FAIR      52  34  50 N24G35    30.11R
VIRGINIA BEACH FAIR      50  31  48 N21G33    30.10R
NORFOLK NAVAL  FAIR      50  31  48 N24G31    30.13R
WEST POINT*    FAIR      46  26  45 N10G16    30.18R
SALUDA*        FAIR      46  29  51 NW18G28   30.15R
NEWPORT NEWS   FAIR      49  28  44 N15G26    30.13R
LANGLEY AFB    FAIR      49  29  46 N24G31    30.12R
FORT EUSTIS    FAIR      49  29  46 N15G28    30.12R
WILLIAMSBURG*  FAIR      48  27  43 N9G22     30.16R
HR EXEC AP*    FAIR      53  30  41 N9G17     30.12R
FRANKLIN*      FAIR      50  29  43 N6        30.13R
US460-WAKEFLD  FAIR      51  29  42 N12G17    30.13R
$$

VAZ020-022-025-037-045-200300-
WEST CENTRAL AND SOUTHWEST VIRGINIA

CITY           SKY/WX    TMP DP  RH WIND       PRES   REMARKS
STAUNTON*      FAIR      35  26  68 CALM      30.19S
WAYNESBORO*    FAIR      38  23  54 W3        30.17R
HOT SPRINGS VA MOCLDY    31  21  67 NW17G31   30.11R WCI  20
LYNCHBURG      FAIR      45  27  49 N6        30.18R
DANVILLE       FAIR      46  29  51 NW9       30.20R
SOUTH BOSTON*  FAIR      46  27  47 W7        30.19R
MARTINSVILLE   FAIR      43  26  49 N8        30.23R
ROANOKE        FAIR      42  25  50 NW6       30.23R
BLACKSBURG     FAIR      39  27  63 NW14G20   30.23R
DUBLIN*        FAIR      40  28  63 NW15      30.23R
MARION*        CLOUDY    38  28  66 W9G17     30.26R
HILLSVILLE*    FAIR      36  25  64 NW18      30.17R
RICHLANDS*     CLOUDY    37   2  24 NW7       30.26R
WISE*          FAIR      36  30  80 NW5       30.28R
ABINGDON*      FAIR      40  28  60 NW5       30.28R
$$

MDZ021>025-VAZ099-100-200300-
SOUTHERN MARYLAND AND THE DELMARVA PENINSULA

CITY           SKY/WX    TMP DP  RH WIND       PRES   REMARKS
PATUXENT RIVER FAIR      48  28  46 NW21G28   30.14R
BAY BRIDGE APT FAIR      45  28  53 NW20      30.14R
LEONARDTOWN    FAIR      45  27  49 NW7G17    30.16R
DOVER          FAIR      42  24  49 NW16G22   30.10R
GEORGETOWN     FAIR      44  25  47 N14G22    30.11R
EASTON         CLOUDY    45  27  49 NW14G20   30.16R
CAMBRIDGE        N/A    N/A N/A N/A MISG        N/A
SALISBURY      FAIR      44  28  53 NW10G22   30.11R
TANGIER        CLOUDY    48  34  57 NW26G35   30.13R
OCEAN CITY     FAIR      44  26  49 N20G30    30.10R
WALLOPS ISLAND MOCLDY    47  29  49 NW13      30.12R
ACCOMACK*      FAIR      47  29  50 NW16G30   30.12R
$$

NCZ012>017-030>032-200300-
NORTH CENTRAL AND EASTERN NORTH CAROLINA

CITY           SKY/WX    TMP DP  RH WIND       PRES   REMARKS
ROANOKE RAPIDS FAIR      50  32  50 NW8       30.14R
RALEIGH        FAIR      48  29  47 VRB6      30.16R
ELIZABETH CITY FAIR      56  33  42 NW22      30.08R
AHOSKIE*       FAIR      51  31  46 CALM      30.13R
EDENTON*       FAIR      57  33  40 N16       30.10R
CURRITUCK*     NOT AVBL
KILL DEVIL HLS FAIR      50  42  73 N8        30.07R
MANTEO         FAIR      52  42  68 NE13G22   30.08R
CAPE HATTERAS  FAIR      56  43  61 NE13G25   30.06R
TARBORO*       NOT AVBL
GOLDSBORO      FAIR      53  29  40 N13G20    30.12R
WASHINGTON     FAIR      55  31  41 N7        30.11R
GREENVILLE     FAIR      54  32  43 N8        30.13R
NEW BERN       FAIR      56  35  45 NW8G20    30.10R
WILMINGTON     FAIR      60  34  37 N13G23    30.08R
$$

VAZ048-200300-
ELSEWHERE

CITY           SKY/WX    TMP DP  RH WIND       PRES   REMARKS
HARRISBURG PA  MOCLDY    42  24  49 NW22G28   30.09R
BALTIMORE      FAIR      42  26  53 W8G18     30.13R
ANNAPOLIS      FAIR      47  30  51 NW10G23   30.14R
ANDREWS AFB    FAIR      43  26  50 NW14      30.14R
PHILADELPHIA   FAIR      42  23  46 W14G23    30.08R
HENDERSON NC   FAIR      45  27  49 NW12G17   30.16R
GREENSBORO     FAIR      45  28  51 N6        30.18R
ROCKY MOUNT    FAIR      50  30  46 NW10      30.14R
$$

VAZ100-200300-
MARINE

STATION/POSITION TIME  TEMP    WIND        PRES    WAVE   SWELL
                       AIR SEA DIR/SP/G            HT/PER HT/PER
                 (UTC) (F)     (DEG/KT/KT) (MB)    (FT/S) (FT/S)
BRANDYWINE LGT   0142   44     330/ 25/ 38 1018.8R
CAPE MAY NJ      0148   44 49   70/  4/ 16 1017.9R
LEWES DE         0142   45 49  320/ 30/ 36 1018.9R
15NM E FENWICK I 0150   45 46  300/ 27/ 33 1017.5R   6/ 6   2/12
OCEAN-CITY-INLET 0148   45 49  340/ 23/ 30 1019.4R
WACHAPREAGUE VA  0148   47 56  330/  7/ 18 1019.9R
THOMAS POINT MD  0200   44 49  310/ 16/ 18 1021.6R
GOOSES REEF MD   0200   46      10/ 21/ 25 1020.9
COVE POINT MD    0148   46     340/ 23/ 26 1021.1R
SOLOMONS ISLAND  0148   47 52  320/ 13/ 17 1020.4R
BISHOPS HEAD MD  0148   46 53  320/ 21/ 31 1021.0R
PINEY POINT MD   0148          340/ 22/ 24   N/A
POTOMAC MD       0200   47 52  330/ 21/ 27 1021.7    3/ 3
CAMBRIDGE MD     0148   45 53              1021.1R
LEWISETTA VA     0148   47 54  340/ 14/ 18 1021.0R
RAPPAHANNOCK LGT 0148          320/ 32/ 36 1021.1R
YORK RVR RNG VA  0148   50     360/ 32/ 38 1020.1R
YORKTOWN VA      0148          340/ 24/ 31   N/A
DOMINION TERM VA 0148   51      10/ 18/ 28 1020.3R
KIPTOPEKE VA     0148          350/ 26/ 32   N/A
CAPE HENRY VA    0148   50     350/ 34/ 38   N/A
WILLOUBY STN VA  0148   51     340/ 21/ 25 1020.1R
S CRANEY ISL VA  0148   53     360/ 20/ 27 1019.1R
CAPE HENRY BUOY  0200      49                N/A     6/ 6
64NM E OF VA BCH 0150   51 50  350/ 21/ 29 1017.9R   5/ 8   3/ 8
DUCK PIER NC     0148   52 50   10/ 18/ 23 1017.8R
44100 DUCK FRF   0115      50                N/A     4/ 5   2/13
44056 DUCK FRF   0200      49                N/A     4/ 5   2/14
OREGON INLET NC  0142   53 63   10/ 11/ 17 1018.0R
HATTERAS NC      0148           20/ 20/ 27   N/A
DIAMOND SHLS NC  0200   59 67   10/ 25/ 33 1017.4
CAPE LOOKOUT NC  0200          340/ 19/ 23 1018.1R
$$




USA.gov is the U.S. government's official web portal to all federal, state and local government web resources and services.